Location: Al Mulaqqa?ah
(24.1833°N, 32.8833°E)
Time: 20:25:11
(UTC+00:00)

Cosmos 1400 Rocket - Pass Details

Date: 26 September 2021
Orbit: 520 x 567 km, 81.2° (Epoch: 15 October)

Event Time Altitude Azimuth Distance (km) Brightness Sun altitude
Rises 16:18:51 0° 192° (SSW) 2,747 6.5 -9.6°
Reaches altitude 10° 16:21:03 10° 195° (SSW) 1,850 5.7 -10.1°
Maximum altitude 16:25:06 64° 277° (W) 621 3.4 -11.0°
Drops below altitude 10° 16:29:08 10° 359° (N) 1,839 5.5 -11.9°
Sets 16:31:19 0° 3° (N) 2,729 6.4 -12.4°
